,,PA_Meas_PMT16A,,PR_Meas_QMR101_102,,RH_Meas_QMH101,,SR_Meas_QMS101,,TA_Meas_QMH101,,GenWind,,GenWind,
time,status,PA,status,PR,status,RH,status,SR,status,TA,status,DirAvg,status,SpdAvg,
2013-08-06, 00:00:04,VALID,918.621,VALID,0,VALID,89.0567,VALID,0,VALID,19.8393,VALID,355,VALID,0,
2013-08-06, 00:01:04,VALID,918.609,VALID,0,VALID,88.9348,VALID,0,VALID,19.8198,VALID,346,VALID,0,
2013-08-06, 00:02:04,VALID,918.609,VALID,0,VALID,89.011,VALID,0,VALID,19.8198,VALID,13,VALID,0,
2013-08-06, 00:03:04,VALID,918.62,VALID,0,VALID,89.0872,VALID,0,VALID,19.8183,VALID,357,VALID,0,
2013-08-06, 00:04:04,VALID,918.611,VALID,0,VALID,89.1787,VALID,0,VALID,19.8003,VALID,1,VALID,0,
2013-08-06, 00:05:04,VALID,918.595,VALID,0,VALID,89.2245,VALID,0,VALID,19.8003,VALID,3,VALID,0,
2013-08-06, 00:06:04,VALID,918.586,VALID,0,VALID,89.0949,VALID,0,VALID,19.8003,VALID,14,VALID,0,
2013-08-06, 00:07:04,VALID,918.548,VALID,0,VALID,89.0644,VALID,0,VALID,19.8198,VALID,5,VALID,0,
2013-08-06, 00:08:04,VALID,918.529,VALID,0,VALID,88.8204,VALID,0,VALID,19.8393,VALID,352,VALID,0,
2013-08-06, 00:09:04,VALID,918.551,VALID,0,VALID,88.6603,VALID,0,VALID,19.8783,VALID,353,VALID,0,
2013-08-06, 00:10:04,VALID,918.531,VALID,0,VALID,88.4926,VALID,0,VALID,19.8783,VALID,344,VALID,0,
2013-08-06, 00:11:04,VALID,918.51,VALID,0,VALID,88.5993,VALID,0,VALID,19.8783,VALID,358,VALID,0,
2013-08-06, 00:12:04,VALID,918.497,VALID,0,VALID,88.6375,VALID,0,VALID,19.8978,VALID,337,VALID,0,
2013-08-06, 00:13:04,VALID,918.462,VALID,0,VALID,88.5536,VALID,0,VALID,19.8978,VALID,335,VALID,0,
2013-08-06, 00:14:04,VALID,918.482,VALID,0,VALID,88.6298,VALID,0,VALID,19.9173,VALID,334,VALID,0,
2013-08-06, 00:15:04,VALID,918.468,VALID,0,VALID,88.4545,VALID,0,VALID,19.9173,VALID,329,VALID,0,
2013-08-06, 00:16:04,VALID,918.469,VALID,0,VALID,88.3706,VALID,0,VALID,19.9368,VALID,344,VALID,0,
2013-08-06, 00:17:04,VALID,918.466,VALID,0,VALID,88.7442,VALID,0,VALID,19.9563,VALID,2,VALID,0,
2013-08-06, 00:18:04,VALID,918.424,VALID,0,VALID,88.7823,VALID,0,VALID,19.9368,VALID,7,VALID,0,
2013-08-06, 00:19:04,VALID,918.426,VALID,0,VALID,89.0186,VALID,0,VALID,19.9173,VALID,11,VALID,0,
2013-08-06, 00:20:04,VALID,918.452,VALID,0,VALID,89.0796,VALID,0,VALID,19.9188,VALID,7,VALID,0,
2013-08-06, 00:21:04,VALID,918.394,VALID,0,VALID,88.8204,VALID,0,VALID,19.8978,VALID,339,VALID,0,
2013-08-06, 00:22:04,VALID,918.394,VALID,0,VALID,88.9043,VALID,0,VALID,19.8978,VALID,337,VALID,0,
2013-08-06, 00:23:04,VALID,918.352,VALID,0,VALID,88.7975,VALID,0,VALID,19.9188,VALID,16,VALID,0,
2013-08-06, 00:24:04,VALID,918.346,VALID,0,VALID,88.7137,VALID,0,VALID,19.8978,VALID,6,VALID,0,
2013-08-06, 00:25:04,VALID,918.308,VALID,0,VALID,88.607,VALID,0,VALID,19.9188,VALID,6,VALID,0,
2013-08-06, 00:26:04,VALID,918.299,VALID,0,VALID,88.7213,VALID,0,VALID,19.8978,VALID,27,VALID,0,
2013-08-06, 00:27:04,VALID,918.314,VALID,0,VALID,88.8662,VALID,0,VALID,19.8603,VALID,4,VALID,0,
2013-08-06, 00:28:04,VALID,918.298,VALID,0,VALID,89.011,VALID,0,VALID,19.8408,VALID,355,VALID,0,
2013-08-06, 00:29:04,VALID,918.285,VALID,0,VALID,89.0415,VALID,0,VALID,19.8018,VALID,330,VALID,0,
2013-08-06, 00:30:04,VALID,918.227,VALID,0,VALID,89.1254,VALID,0,VALID,19.7808,VALID,351,VALID,0,
2013-08-06, 00:31:04,VALID,918.216,VALID,0,VALID,89.2321,VALID,0,VALID,19.7418,VALID,10,VALID,0,
2013-08-06, 00:32:04,VALID,918.233,VALID,0,VALID,89.3464,VALID,0,VALID,19.7223,VALID,26,VALID,0,
2013-08-06, 00:33:04,VALID,918.249,VALID,0,VALID,89.4913,VALID,0,VALID,19.7238,VALID,1,VALID,0,
2013-08-06, 00:34:04,VALID,918.213,VALID,0,VALID,89.6895,VALID,0,VALID,19.6833,VALID,356,VALID,0,
2013-08-06, 00:35:04,VALID,918.234,VALID,0,VALID,89.8343,VALID,0,VALID,19.6833,VALID,350,VALID,0,
2013-08-06, 00:36:04,VALID,918.224,VALID,0,VALID,89.8572,VALID,0,VALID,19.6638,VALID,355,VALID,0,
2013-08-06, 00:37:04,VALID,918.189,VALID,0,VALID,89.7657,VALID,0,VALID,19.6833,VALID,348,VALID,0,
2013-08-06, 00:38:04,VALID,918.151,VALID,0,VALID,89.659,VALID,0,VALID,19.7028,VALID,339,VALID,0,
2013-08-06, 00:39:04,VALID,918.188,VALID,0,VALID,89.7276,VALID,0,VALID,19.7433,VALID,356,VALID,0,
2013-08-06, 00:40:04,VALID,918.15,VALID,0,VALID,89.8496,VALID,0,VALID,19.7628,VALID,357,VALID,0,
2013-08-06, 00:41:04,VALID,918.094,VALID,0,VALID,89.7276,VALID,0,VALID,19.7223,VALID,359,VALID,0,
2013-08-06, 00:42:04,VALID,918.094,VALID,0,VALID,89.6742,VALID,0,VALID,19.7223,VALID,3,VALID,0,
2013-08-06, 00:43:04,VALID,918.048,VALID,0,VALID,89.8648,VALID,0,VALID,19.7223,INVALID,360,VALID,0,
2013-08-06, 00:44:04,VALID,918.057,VALID,0,VALID,89.7581,VALID,0,VALID,19.7223,VALID,334,VALID,0,
2013-08-06, 00:45:04,VALID,918.017,VALID,0,VALID,89.72,VALID,0,VALID,19.7418,VALID,334,VALID,0,
2013-08-06, 00:46:04,VALID,918.012,VALID,0,VALID,89.8953,VALID,0,VALID,19.7223,VALID,334,VALID,0,
2013-08-06, 00:47:04,VALID,917.998,VALID,0,VALID,89.8953,VALID,0,VALID,19.7028,VALID,334,VALID,0,
2013-08-06, 00:48:04,VALID,917.997,VALID,0,VALID,89.8801,VALID,0,VALID,19.7223,VALID,358,VALID,0,
2013-08-06, 00:49:04,VALID,918.007,VALID,0,VALID,90.1698,VALID,0,VALID,19.7433,VALID,357,VALID,0,
2013-08-06, 00:50:04,VALID,918.004,VALID,0,VALID,90.2308,VALID,0,VALID,19.7433,VALID,357,VALID,0,
2013-08-06, 00:51:04,VALID,917.972,VALID,0,VALID,90.1774,VALID,0,VALID,19.7628,INVALID,360,VALID,0,
2013-08-06, 00:52:04,VALID,917.967,VALID,0,VALID,90.0402,VALID,0,VALID,19.7418,INVALID,360,VALID,0,
2013-08-06, 00:53:04,VALID,917.978,VALID,0,VALID,90.1393,VALID,0,VALID,19.7628,VALID,357,VALID,0,
2013-08-06, 00:54:04,VALID,917.993,VALID,0,VALID,90.3832,VALID,0,VALID,19.7628,VALID,357,VALID,0,
2013-08-06, 00:55:04,VALID,917.942,VALID,0,VALID,90.0478,VALID,0,VALID,19.7238,VALID,349,VALID,0,
2013-08-06, 00:56:04,VALID,917.949,VALID,0,VALID,89.9334,VALID,0,VALID,19.7223,VALID,348,VALID,0,
2013-08-06, 00:57:04,VALID,917.932,VALID,0,VALID,89.7733,VALID,0,VALID,19.7433,VALID,345,VALID,0,
2013-08-06, 00:58:04,VALID,917.875,VALID,0,VALID,89.659,VALID,0,VALID,19.7418,VALID,339,VALID,0,
2013-08-06, 00:59:04,VALID,917.861,VALID,0,VALID,89.6514,VALID,0,VALID,19.8018,INVALID,360,VALID,0,
2013-08-06, 01:00:04,VALID,917.835,VALID,0,VALID,89.6514,VALID,0,VALID,19.7598,VALID,44,VALID,0,
2013-08-06, 01:01:04,VALID,917.796,VALID,0,VALID,89.7047,VALID,0,VALID,19.7598,VALID,25,VALID,0,
2013-08-06, 01:02:04,VALID,917.782,VALID,0,VALID,89.6437,VALID,0.107441,VALID,19.7598,VALID,358,VALID,0,
2013-08-06, 01:03:04,VALID,917.769,VALID,0,VALID,89.7505,VALID,0.107441,VALID,19.7403,VALID,2,VALID,0,
2013-08-06, 01:04:04,VALID,917.816,VALID,0,VALID,89.7733,VALID,0,VALID,19.7418,VALID,356,VALID,0,
2013-08-06, 01:05:04,VALID,917.832,VALID,0,VALID,89.8648,VALID,0,VALID,19.7208,VALID,2,VALID,0,
2013-08-06, 01:06:04,VALID,917.804,VALID,0,VALID,89.9563,VALID,0.107441,VALID,19.7013,VALID,1,VALID,0,
2013-08-06, 01:07:04,VALID,917.823,VALID,0,VALID,90.1469,VALID,0,VALID,19.6818,VALID,17,VALID,0,
2013-08-06, 01:08:04,VALID,917.808,VALID,0,VALID,90.4366,VALID,0.107441,VALID,19.6638,VALID,18,VALID,0,
2013-08-06, 01:09:04,VALID,917.85,VALID,0,VALID,90.5662,VALID,0,VALID,19.6248,VALID,14,VALID,0,
2013-08-06, 01:10:04,VALID,917.825,VALID,0,VALID,90.6348,VALID,0.107441,VALID,19.5843,VALID,333,VALID,0,
2013-08-06, 01:11:04,VALID,917.804,VALID,0,VALID,90.6043,VALID,0.107441,VALID,19.5843,VALID,347,VALID,0,
2013-08-06, 01:12:04,VALID,917.8,VALID,0,VALID,90.5891,VALID,0,VALID,19.5648,VALID,357,VALID,0,
2013-08-06, 01:13:04,VALID,917.736,VALID,0,VALID,90.6424,VALID,0,VALID,19.5453,VALID,360,VALID,0,
2013-08-06, 01:14:04,VALID,917.698,VALID,0,VALID,90.5891,VALID,0.107441,VALID,19.5453,VALID,14,VALID,0,
2013-08-06, 01:15:04,VALID,917.688,VALID,0,VALID,90.6272,VALID,0,VALID,19.5273,VALID,1,VALID,0,
2013-08-06, 01:16:04,VALID,917.659,VALID,0,VALID,90.8101,VALID,0,VALID,19.4688,VALID,359,VALID,0,
2013-08-06, 01:17:04,VALID,917.639,VALID,0,VALID,90.8864,VALID,0,VALID,19.4493,VALID,21,VALID,0,
2013-08-06, 01:18:04,VALID,917.65,VALID,0,VALID,91.0083,VALID,0,VALID,19.4103,VALID,12,VALID,0,
2013-08-06, 01:19:04,VALID,917.615,VALID,0,VALID,91.0998,VALID,0,VALID,19.3713,VALID,26,VALID,0,
2013-08-06, 01:20:04,VALID,917.623,VALID,0,VALID,91.1608,VALID,0,VALID,19.3128,VALID,14,VALID,0,
2013-08-06, 01:21:04,VALID,917.609,VALID,0,VALID,91.4352,VALID,0,VALID,19.2738,VALID,13,VALID,0,
2013-08-06, 01:22:04,VALID,917.61,VALID,0,VALID,91.7021,VALID,0,VALID,19.2543,VALID,332,VALID,0,
2013-08-06, 01:23:04,VALID,917.628,VALID,0,VALID,91.9231,VALID,0,VALID,19.2543,VALID,325,VALID,0,
2013-08-06, 01:24:04,VALID,917.581,VALID,0,VALID,91.946,VALID,0,VALID,19.2738,VALID,325,VALID,0,
2013-08-06, 01:25:04,VALID,917.608,VALID,0,VALID,91.885,VALID,0,VALID,19.2543,VALID,325,VALID,0,
2013-08-06, 01:26:04,VALID,917.585,VALID,0,VALID,91.7707,VALID,0,VALID,19.2543,VALID,325,VALID,0,
2013-08-06, 01:27:04,VALID,917.604,VALID,0,VALID,91.7021,VALID,0,VALID,19.1958,VALID,347,VALID,0,
2013-08-06, 01:28:04,VALID,917.575,VALID,0,VALID,91.8927,VALID,0,VALID,19.1568,VALID,358,VALID,0,
2013-08-06, 01:29:04,VALID,917.558,VALID,0,VALID,92.1137,VALID,0,VALID,19.1178,VALID,358,VALID,0,
2013-08-06, 01:30:04,VALID,917.572,VALID,0,VALID,92.1976,VALID,0,VALID,19.0788,VALID,358,VALID,0,
2013-08-06, 01:31:04,VALID,917.539,VALID,0,VALID,92.4339,VALID,0,VALID,19.0593,VALID,358,VALID,0,
2013-08-06, 01:32:04,VALID,917.523,VALID,0,VALID,92.5864,VALID,0,VALID,19.0203,VALID,338,VALID,0,
2013-08-06, 01:33:04,VALID,917.493,VALID,0,VALID,92.8075,VALID,0.107441,VALID,19.0413,VALID,342,VALID,0,
2013-08-06, 01:34:04,VALID,917.492,VALID,0,VALID,92.8761,VALID,0,VALID,19.0203,VALID,352,VALID,0,
2013-08-06, 01:35:04,VALID,917.51,VALID,0,VALID,92.6931,VALID,0,VALID,19.0218,VALID,355,VALID,0,
2013-08-06, 01:36:04,VALID,917.452,VALID,0,VALID,92.8532,VALID,0,VALID,18.9828,VALID,356,VALID,0,
2013-08-06, 01:37:04,VALID,917.44,VALID,0,VALID,92.8837,VALID,0,VALID,18.9424,VALID,356,VALID,0,
2013-08-06, 01:38:04,VALID,917.438,VALID,0,VALID,93.0743,VALID,0,VALID,18.9828,VALID,331,VALID,0,
2013-08-06, 01:39:04,VALID,917.433,VALID,0,VALID,93.1353,VALID,0,VALID,18.9619,VALID,331,VALID,0,
2013-08-06, 01:40:04,VALID,917.436,VALID,0,VALID,93.2191,VALID,0,VALID,18.9424,VALID,331,VALID,0,
2013-08-06, 01:41:04,VALID,917.425,VALID,0,VALID,93.3487,VALID,0,VALID,18.9828,VALID,331,VALID,0,
2013-08-06, 01:42:04,VALID,917.449,VALID,0,VALID,93.2877,VALID,0,VALID,18.9814,VALID,355,VALID,0,
2013-08-06, 01:43:04,VALID,917.415,VALID,0,VALID,93.059,VALID,0,VALID,18.9828,VALID,3,VALID,0,
2013-08-06, 01:44:04,VALID,917.415,VALID,0,VALID,93.0057,VALID,0,VALID,18.9814,VALID,3,VALID,0,
2013-08-06, 01:45:04,VALID,917.377,VALID,0,VALID,93.0362,VALID,0.107441,VALID,19.0008,VALID,3,VALID,0,
2013-08-06, 01:46:04,VALID,917.349,VALID,0,VALID,92.8608,VALID,0,VALID,19.0008,VALID,3,VALID,0,
2013-08-06, 01:47:04,VALID,917.354,VALID,0,VALID,92.7922,VALID,0.107441,VALID,18.9604,VALID,3,VALID,0,
2013-08-06, 01:48:04,VALID,917.341,VALID,0,VALID,92.7617,VALID,0.107441,VALID,18.9604,VALID,3,VALID,0,
2013-08-06, 01:49:04,VALID,917.34,VALID,0,VALID,92.8532,VALID,0.107441,VALID,18.9814,VALID,3,VALID,0,
2013-08-06, 01:50:04,VALID,917.319,VALID,0,VALID,92.838,VALID,0.107441,VALID,18.9409,VALID,3,VALID,0,
2013-08-06, 01:51:04,VALID,917.339,VALID,0,VALID,92.6702,VALID,0.107441,VALID,18.9034,VALID,3,VALID,0,
2013-08-06, 01:52:04,VALID,917.331,VALID,0,VALID,93.0057,VALID,0,VALID,18.9034,VALID,3,VALID,0,
2013-08-06, 01:53:04,VALID,917.315,VALID,0,VALID,93.2496,VALID,0.107441,VALID,18.8629,VALID,359,VALID,0,
2013-08-06, 01:54:04,VALID,917.301,VALID,0,VALID,93.4021,VALID,0.107441,VALID,18.9214,VALID,359,VALID,0,
2013-08-06, 01:55:04,VALID,917.282,VALID,0,VALID,93.3945,VALID,0,VALID,19.0008,VALID,359,VALID,0,
2013-08-06, 01:56:04,VALID,917.273,VALID,0,VALID,93.1353,VALID,0.107441,VALID,19.0384,VALID,359,VALID,0,
2013-08-06, 01:57:04,VALID,917.277,VALID,0,VALID,92.8608,VALID,0,VALID,19.0398,VALID,359,VALID,0,
2013-08-06, 01:58:04,VALID,917.252,VALID,0,VALID,92.472,VALID,0,VALID,18.9604,VALID,359,VALID,0,
2013-08-06, 01:59:04,VALID,917.23,VALID,0,VALID,92.6321,VALID,0.107441,VALID,18.9214,VALID,3,VALID,0,
2013-08-06, 02:00:04,VALID,917.23,VALID,0,VALID,92.777,VALID,0,VALID,18.9034,VALID,3,VALID,0,
2013-08-06, 02:01:04,VALID,917.249,VALID,0,VALID,92.9904,VALID,0,VALID,18.9048,VALID,3,VALID,0,
2013-08-06, 02:02:04,VALID,917.256,VALID,0,VALID,93.0667,VALID,0,VALID,18.9048,VALID,3,VALID,0,
2013-08-06, 02:03:04,VALID,917.244,VALID,0,VALID,93.2039,VALID,0,VALID,18.9048,VALID,3,VALID,0,
2013-08-06, 02:04:04,VALID,917.246,VALID,0,VALID,93.2801,VALID,0,VALID,18.8839,VALID,3,VALID,0,
2013-08-06, 02:05:04,VALID,917.252,VALID,0,VALID,93.2877,VALID,0,VALID,18.9034,VALID,3,VALID,0,
2013-08-06, 02:06:04,VALID,917.266,VALID,0,VALID,93.303,VALID,0,VALID,18.9243,VALID,3,VALID,0,
2013-08-06, 02:07:04,VALID,917.235,VALID,0,VALID,93.3411,VALID,0,VALID,18.9229,VALID,3,VALID,0,
2013-08-06, 02:08:04,VALID,917.209,VALID,0,VALID,93.2268,VALID,0,VALID,18.9424,VALID,3,VALID,0,
2013-08-06, 02:09:04,VALID,917.199,VALID,0,VALID,93.0133,VALID,0,VALID,18.9243,VALID,3,VALID,0,
2013-08-06, 02:10:04,VALID,917.182,VALID,0,VALID,93.2039,VALID,0,VALID,18.9243,VALID,3,VALID,0,
2013-08-06, 02:11:04,VALID,917.171,VALID,0,VALID,93.2725,VALID,0.107441,VALID,18.9229,VALID,3,VALID,0,
2013-08-06, 02:12:04,VALID,917.162,VALID,0,VALID,93.242,VALID,0,VALID,18.8839,VALID,3,VALID,0,
2013-08-06, 02:13:04,VALID,917.135,VALID,0,VALID,93.0972,VALID,0.107441,VALID,18.8434,VALID,3,VALID,0,
2013-08-06, 02:14:04,VALID,917.126,VALID,0,VALID,93.12,VALID,0.214882,VALID,18.824,VALID,3,VALID,0,
2013-08-06, 02:15:04,VALID,917.11,VALID,0,VALID,93.2725,VALID,0,VALID,18.7864,VALID,3,VALID,0,
2013-08-06, 02:16:04,VALID,917.095,VALID,0,VALID,93.2877,VALID,0,VALID,18.7683,VALID,3,VALID,0,
2013-08-06, 02:17:04,VALID,917.078,VALID,0,VALID,93.3106,VALID,0,VALID,18.7488,VALID,3,VALID,0,
2013-08-06, 02:18:04,VALID,917.084,VALID,0,VALID,93.3716,VALID,0,VALID,18.6903,VALID,3,VALID,0,
2013-08-06, 02:19:04,VALID,917.062,VALID,0,VALID,93.8366,VALID,0,VALID,18.7293,VALID,3,VALID,0,
2013-08-06, 02:20:04,VALID,917.061,VALID,0,VALID,93.8214,VALID,0,VALID,18.7279,VALID,3,VALID,0,
2013-08-06, 02:21:04,VALID,917.085,VALID,0,VALID,93.8214,VALID,0,VALID,18.7488,VALID,3,VALID,0,
2013-08-06, 02:22:04,VALID,917.087,VALID,0,VALID,93.7528,VALID,0,VALID,18.7488,VALID,3,VALID,0,
2013-08-06, 02:23:04,VALID,917.09,VALID,0,VALID,93.9586,VALID,0,VALID,18.7488,VALID,3,VALID,0,
2013-08-06, 02:24:04,VALID,917.103,VALID,0,VALID,94.0806,VALID,0,VALID,18.7878,VALID,3,VALID,0,
2013-08-06, 02:25:04,VALID,917.076,VALID,0,VALID,93.8671,VALID,0,VALID,18.8073,VALID,3,VALID,0,
2013-08-06, 02:26:04,VALID,917.102,VALID,0,VALID,93.829,VALID,0,VALID,18.8073,VALID,3,VALID,0,
2013-08-06, 02:27:04,VALID,917.118,VALID,0,VALID,93.8747,VALID,0,VALID,18.7864,VALID,3,VALID,0,
2013-08-06, 02:28:04,VALID,917.091,VALID,0,VALID,93.89,VALID,0,VALID,18.8268,VALID,3,VALID,0,
2013-08-06, 02:29:04,VALID,917.102,VALID,0,VALID,93.9281,VALID,0,VALID,18.8658,VALID,3,VALID,0,
2013-08-06, 02:30:04,VALID,917.123,VALID,0,VALID,93.8138,VALID,0,VALID,18.8254,VALID,3,VALID,0,
2013-08-06, 02:31:04,VALID,917.096,VALID,0,VALID,93.8747,VALID,0,VALID,18.9048,VALID,3,VALID,0,
2013-08-06, 02:32:04,VALID,917.07,VALID,0,VALID,93.8138,VALID,0,VALID,18.9048,VALID,3,VALID,0,
2013-08-06, 02:33:04,VALID,917.042,VALID,0,VALID,93.6689,VALID,0,VALID,18.9243,VALID,3,VALID,0,
2013-08-06, 02:34:04,VALID,917.04,VALID,0,VALID,93.4936,VALID,0,VALID,18.9048,VALID,3,VALID,0,
2013-08-06, 02:35:04,VALID,917.008,VALID,0,VALID,93.4936,VALID,0,VALID,18.9048,VALID,3,VALID,0,
2013-08-06, 02:36:04,VALID,916.97,VALID,0,VALID,93.4402,VALID,0,VALID,18.8853,VALID,3,VALID,0,
2013-08-06, 02:37:04,VALID,916.94,VALID,0,VALID,93.4936,VALID,0,VALID,18.8644,VALID,3,VALID,0,
2013-08-06, 02:38:04,VALID,916.943,VALID,0,VALID,93.5088,VALID,0,VALID,18.8658,VALID,3,VALID,0,
2013-08-06, 02:39:04,VALID,916.905,VALID,0,VALID,93.6613,VALID,0,VALID,18.8658,VALID,3,VALID,0,
2013-08-06, 02:40:04,VALID,916.911,VALID,0,VALID,93.6994,VALID,0,VALID,18.8658,VALID,3,VALID,0,
2013-08-06, 02:41:04,VALID,916.859,VALID,0,VALID,93.707,VALID,0,VALID,18.8658,VALID,3,VALID,0,
2013-08-06, 02:42:04,VALID,916.873,VALID,0,VALID,93.6384,VALID,0,VALID,18.8463,VALID,3,VALID,0,
2013-08-06, 02:43:04,VALID,916.876,VALID,0,VALID,93.5927,VALID,0,VALID,18.8268,VALID,3,VALID,0,
2013-08-06, 02:44:04,VALID,916.886,VALID,0,VALID,93.768,VALID,0,VALID,18.8073,VALID,3,VALID,0,
2013-08-06, 02:45:04,VALID,916.911,VALID,0,VALID,93.8519,VALID,0.107441,VALID,18.7864,VALID,3,VALID,0,
2013-08-06, 02:46:04,VALID,916.914,VALID,0,VALID,93.7833,VALID,0.107441,VALID,18.7669,VALID,3,VALID,0,
2013-08-06, 02:47:04,VALID,916.91,VALID,0,VALID,93.707,VALID,0,VALID,18.7474,VALID,3,VALID,0,
2013-08-06, 02:48:04,VALID,916.889,VALID,0,VALID,93.7756,VALID,0.107441,VALID,18.7279,VALID,3,VALID,0,
2013-08-06, 02:49:04,VALID,916.889,VALID,0,VALID,93.8366,VALID,0.107441,VALID,18.6875,VALID,3,VALID,0,
2013-08-06, 02:50:04,VALID,916.874,VALID,0,VALID,93.9586,VALID,0.107441,VALID,18.7279,VALID,3,VALID,0,
2013-08-06, 02:51:04,VALID,916.843,VALID,0,VALID,93.8824,VALID,0.107441,VALID,18.7084,VALID,3,VALID,0,
2013-08-06, 02:52:04,VALID,916.823,VALID,0,VALID,93.9586,VALID,0.107441,VALID,18.6889,VALID,3,VALID,0,
2013-08-06, 02:53:04,VALID,916.796,VALID,0,VALID,93.9281,VALID,0.107441,VALID,18.6499,VALID,3,VALID,0,
2013-08-06, 02:54:04,VALID,916.722,VALID,0,VALID,93.8595,VALID,0.107441,VALID,18.6109,VALID,3,VALID,0,
2013-08-06, 02:55:04,VALID,916.746,VALID,0,VALID,93.8595,VALID,0.107441,VALID,18.5914,VALID,3,VALID,0,
2013-08-06, 02:56:04,VALID,916.739,VALID,0,VALID,93.951,VALID,0.107441,VALID,18.5511,VALID,3,VALID,0,
2013-08-06, 02:57:04,VALID,916.727,VALID,0,VALID,94.1111,VALID,0,VALID,18.572,VALID,3,VALID,0,
2013-08-06, 02:58:04,VALID,916.735,VALID,0,VALID,94.294,VALID,0.107441,VALID,18.6109,VALID,3,VALID,0,
2013-08-06, 02:59:04,VALID,916.731,VALID,0,VALID,94.4008,VALID,0,VALID,18.6109,VALID,3,VALID,0,
2013-08-06, 03:00:04,VALID,916.728,VALID,0,VALID,94.538,VALID,0,VALID,18.6499,VALID,3,VALID,0,
2013-08-06, 03:01:04,VALID,916.675,VALID,0,VALID,94.7133,VALID,0,VALID,18.7084,VALID,3,VALID,0,
2013-08-06, 03:02:04,VALID,916.7,VALID,0,VALID,94.2254,VALID,0,VALID,18.7084,VALID,3,VALID,0,
2013-08-06, 03:03:04,VALID,916.706,VALID,0,VALID,93.8214,VALID,0,VALID,18.5914,VALID,3,VALID,0,
2013-08-06, 03:04:04,VALID,916.683,VALID,0,VALID,94.0043,VALID,0,VALID,18.6109,VALID,3,VALID,0,
2013-08-06, 03:05:04,VALID,916.683,VALID,0,VALID,94.0958,VALID,0,VALID,18.6109,VALID,3,VALID,0,
2013-08-06, 03:06:04,VALID,916.654,VALID,0,VALID,94.2026,VALID,0,VALID,18.6304,VALID,3,VALID,0,
2013-08-06, 03:07:04,VALID,916.635,VALID,0,VALID,94.294,VALID,0,VALID,18.6499,VALID,3,VALID,0,
2013-08-06, 03:08:04,VALID,916.623,VALID,0,VALID,94.355,VALID,0,VALID,18.6499,VALID,3,VALID,0,
2013-08-06, 03:09:04,VALID,916.611,VALID,0,VALID,94.3703,VALID,0,VALID,18.6499,VALID,3,VALID,0,
2013-08-06, 03:10:04,VALID,916.607,VALID,0,VALID,94.3474,VALID,0,VALID,18.6513,VALID,3,VALID,0,
2013-08-06, 03:11:04,VALID,916.587,VALID,0,VALID,94.294,VALID,0,VALID,18.6109,VALID,3,VALID,0,
2013-08-06, 03:12:04,VALID,916.539,VALID,0,VALID,94.5227,VALID,0,VALID,18.6903,VALID,3,VALID,0,
2013-08-06, 03:13:04,VALID,916.517,VALID,0,VALID,94.6295,VALID,0,VALID,18.7488,VALID,3,VALID,0,
2013-08-06, 03:14:04,VALID,916.516,VALID,0,VALID,94.6752,VALID,0,VALID,18.7864,VALID,3,VALID,0,
2013-08-06, 03:15:04,VALID,916.472,VALID,0,VALID,94.5609,VALID,0,VALID,18.8254,VALID,3,VALID,0,
2013-08-06, 03:16:04,VALID,916.479,VALID,0,VALID,94.477,VALID,0,VALID,18.8853,VALID,3,VALID,0,
2013-08-06, 03:17:04,VALID,916.439,VALID,0,VALID,94.3474,VALID,0,VALID,18.9048,VALID,3,VALID,0,
2013-08-06, 03:18:04,VALID,916.403,VALID,0,VALID,94.2254,VALID,0,VALID,18.8839,VALID,3,VALID,0,
2013-08-06, 03:19:04,VALID,916.425,VALID,0,VALID,94.0958,VALID,0,VALID,18.8644,VALID,3,VALID,0,
2013-08-06, 03:20:04,VALID,916.425,VALID,0,VALID,94.0196,VALID,0,VALID,18.8644,VALID,3,VALID,0,
2013-08-06, 03:21:04,VALID,916.423,VALID,0,VALID,93.9434,VALID,0,VALID,18.8658,VALID,3,VALID,0,
2013-08-06, 03:22:04,VALID,916.416,VALID,0,VALID,93.9129,VALID,0,VALID,18.8254,VALID,3,VALID,0,
2013-08-06, 03:23:04,VALID,916.396,VALID,0,VALID,93.6155,VALID,0,VALID,18.7669,VALID,3,VALID,0,
2013-08-06, 03:24:04,VALID,916.398,VALID,0,VALID,93.6384,VALID,0,VALID,18.7279,VALID,3,VALID,0,
2013-08-06, 03:25:04,VALID,916.36,VALID,0,VALID,93.6689,VALID,0,VALID,18.6694,VALID,3,VALID,0,
2013-08-06, 03:26:04,VALID,916.372,VALID,0,VALID,93.5851,VALID,0,VALID,18.6109,VALID,3,VALID,0,
2013-08-06, 03:27:04,VALID,916.387,VALID,0,VALID,93.9662,VALID,0,VALID,18.6109,VALID,3,VALID,0,
2013-08-06, 03:28:04,VALID,916.417,VALID,0,VALID,94.2102,VALID,0,VALID,18.6109,VALID,3,VALID,0,
2013-08-06, 03:29:04,VALID,916.393,VALID,0,VALID,94.4694,VALID,0,VALID,18.6319,VALID,3,VALID,0,
2013-08-06, 03:30:04,VALID,916.377,VALID,0,VALID,94.3931,VALID,0,VALID,18.572,VALID,3,VALID,0,
2013-08-06, 03:31:04,VALID,916.404,VALID,0,VALID,94.3093,VALID,0,VALID,18.5344,VALID,2,VALID,0,
2013-08-06, 03:32:04,VALID,916.42,VALID,0,VALID,94.4008,VALID,0,VALID,18.5344,VALID,3,VALID,0,
2013-08-06, 03:33:04,VALID,916.374,VALID,0,VALID,94.4617,VALID,0,VALID,18.5344,VALID,3,VALID,0,
2013-08-06, 03:34:04,VALID,916.393,VALID,0,VALID,94.5913,VALID,0,VALID,18.5344,VALID,3,VALID,0,
2013-08-06, 03:35:04,VALID,916.384,VALID,0,VALID,94.6905,VALID,0,VALID,18.5539,VALID,3,VALID,0,
2013-08-06, 03:36:04,VALID,916.397,VALID,0,VALID,94.8887,VALID,0,VALID,18.5525,VALID,3,VALID,0,
2013-08-06, 03:37:04,VALID,916.414,VALID,0,VALID,94.9725,VALID,0,VALID,18.6109,VALID,3,VALID,0,
2013-08-06, 03:38:04,VALID,916.412,VALID,0,VALID,95.0411,VALID,0,VALID,18.6304,VALID,3,VALID,0,
2013-08-06, 03:39:04,VALID,916.453,VALID,0,VALID,95.0259,VALID,0,VALID,18.6694,VALID,3,VALID,0,
2013-08-06, 03:40:04,VALID,916.454,VALID,0,VALID,94.9344,VALID,0,VALID,18.6304,VALID,3,VALID,0,
2013-08-06, 03:41:04,VALID,916.454,VALID,0,VALID,94.8353,VALID,0,VALID,18.6513,VALID,3,VALID,0,
2013-08-06, 03:42:04,VALID,916.456,VALID,0,VALID,94.6295,VALID,0,VALID,18.5525,VALID,3,VALID,0,
2013-08-06, 03:43:04,VALID,916.435,VALID,0,VALID,94.6295,VALID,0,VALID,18.5135,VALID,3,VALID,0,
2013-08-06, 03:44:04,VALID,916.453,VALID,0,VALID,94.6066,VALID,0,VALID,18.4564,VALID,3,VALID,0,
2013-08-06, 03:45:04,VALID,916.424,VALID,0,VALID,94.6523,VALID,0,VALID,18.3979,VALID,3,VALID,0,
2013-08-06, 03:46:04,VALID,916.44,VALID,0,VALID,94.8429,VALID,0,VALID,18.3589,VALID,3,VALID,0,
2013-08-06, 03:47:04,VALID,916.439,VALID,0,VALID,94.9344,VALID,0,VALID,18.3004,VALID,3,VALID,0,
2013-08-06, 03:48:04,VALID,916.448,VALID,0,VALID,95.003,VALID,0,VALID,18.242,VALID,3,VALID,0,
2013-08-06, 03:49:04,VALID,916.46,VALID,0,VALID,95.1402,VALID,0,VALID,18.2225,VALID,3,VALID,0,
2013-08-06, 03:50:04,VALID,916.452,VALID,0,VALID,95.2927,VALID,0,VALID,18.2225,VALID,3,VALID,0,
2013-08-06, 03:51:04,VALID,916.458,VALID,0,VALID,95.4071,VALID,0,VALID,18.1821,VALID,3,VALID,0,
2013-08-06, 03:52:04,VALID,916.468,VALID,0,VALID,95.5519,VALID,0,VALID,18.2225,VALID,3,VALID,0,
2013-08-06, 03:53:04,VALID,916.445,VALID,0,VALID,95.6586,VALID,0,VALID,18.242,VALID,24,VALID,0,
2013-08-06, 03:54:04,VALID,916.469,VALID,0,VALID,95.7577,VALID,0,VALID,18.242,VALID,94,VALID,0,
2013-08-06, 03:55:04,VALID,916.474,VALID,0,VALID,95.7806,VALID,0,VALID,18.1835,VALID,94,VALID,0,
2013-08-06, 03:56:04,VALID,916.486,VALID,0,VALID,95.7958,VALID,0,VALID,18.164,VALID,94,VALID,0,
2013-08-06, 03:57:04,VALID,916.472,VALID,0,VALID,95.834,VALID,0,VALID,18.1835,VALID,94,VALID,0,
2013-08-06, 03:58:04,VALID,916.47,VALID,0,VALID,95.8568,VALID,0,VALID,18.164,VALID,94,VALID,0,
2013-08-06, 03:59:04,VALID,916.475,VALID,0,VALID,95.8645,VALID,0,VALID,18.1236,VALID,94,VALID,0,
2013-08-06, 04:00:04,VALID,916.452,VALID,0,VALID,95.9331,VALID,0,VALID,18.1835,VALID,94,VALID,0,